Location: Lombard
(41.8800°N, 88.0080°W)
Time: 01:30:59
(UTC-05:00)

Gurwin Techsat 1B - Pass Details

Date: 18 May 2022
Orbit: 811 x 814 km, 98.8° (Epoch: 27 June)

Event Time Altitude Azimuth Distance (km) Brightness Sun altitude
Rises 03:55:20 0° 8° (N) 3,345 12.7 -14.9°
Reaches altitude 10° 03:57:44 10° 4° (N) 2,409 11.8 -14.6°
Maximum altitude 04:02:52 51° 290° (WNW) 1,015 8.9 -13.9°
Enters shadow 04:06:30 19° 221° (SW) 1,845 9.8 -13.4°
